Limon, CO

11:15 PM MST on February 20, 2018 (GMT -0700)
Limon Municipal

Weather History for KLIC - November, 2013

Change the Weather History Date:

Friday, November 1, 2013

  Actual Average Record
Temperature  
Mean Temperature 35 °F -  
Max Temperature 50 °F - 75 °F (2008)
Min Temperature 19 °F - 15 °F (2006)
Degree Days  
Heating Degree Days 30    
Month to date heating degree days 30  
Cooling Degree Days 0    
Month to date cooling degree days 0  
Moisture  
Dew Point 25 °F    
Average Humidity 63    
Maximum Humidity 91    
Minimum Humidity 34    
Precipitation  
Precipitation 0.01 in - 0.27 in (2010)
Month to date precipitation 0.01  
Year to date precipitation 16.96  
Snow  
Snow 0.00 in - - ()
Snow Depth -    
Sea Level Pressure  
Sea Level Pressure 30.10 in    
Wind  
Wind Speed 10 mph (NNW)    
Max Wind Speed 23 mph    
Max Gust Speed 37 mph    
Visibility 10 miles    
Events Rain    
T = Trace of Precipitation, MM = Missing Value Source: NWS Daily Summary

Daily Weather History Graph

Daily Weather History Graph

Search for Another Location

Airport or City:

Trip Planner

Search our weather history database for the weather conditions in past years. The results will help you decide how hot, cold, wet, or windy it might be!

Date:

Astronomy

Nov. 01, 2013 Rise Set
Actual Time 7:22 AM MDT 5:53 PM MDT
Civil Twilight 6:55 AM MDT 6:20 PM MDT
Nautical Twilight 6:23 AM MDT 6:52 PM MDT
Astronomical Twilight 5:52 AM MDT 7:23 PM MDT
Moon 5:18 AM MDT (11/1) 4:47 PM MDT (11/1)
Length of Visible Light 11h 25m
Length of Day
10h 30m
Waning Crescent, 4% of the Moon is Illuminated
Nov 1
Waning Crescent
Nov 3
New
Nov 9
First Quarter
Nov 17
Full
Nov 25
Last Quarter

Hourly Weather History & Observations

Time (MDT) Temp. Windchill Dew Point Humidity Pressure Visibility Wind Dir Wind Speed Gust Speed Precip Events Conditions
12:55 AM 35.1 °F 26.4 °F 21.9 °F 59% 29.86 in 10.0 mi WNW 12.7 mph - N/A   Clear
1:55 AM 33.1 °F 26.1 °F 21.9 °F 64% 29.87 in 10.0 mi West 8.1 mph - N/A   Clear
2:55 AM 30.9 °F 23.5 °F 21.9 °F 69% 29.90 in 10.0 mi NW 8.1 mph - N/A   Partly Cloudy
3:55 AM 37.0 °F 30.4 °F 24.1 °F 59% 29.91 in 10.0 mi NNW 9.2 mph - N/A   Overcast
4:44 AM 37.0 °F 28.5 °F 30.9 °F 79% 30.02 in 10.0 mi NNW 13.8 mph 27.6 mph 0.00 in Rain Light Rain
4:55 AM 36.0 °F 29.6 °F 32.0 °F 86% 29.96 in 10.0 mi NNW 8.1 mph - 0.01 in Rain Light Rain
5:08 AM 36.0 °F 29.6 °F 32.0 °F 86% 30.01 in 10.0 mi NW 8.1 mph - 0.00 in Rain Light Rain
5:55 AM 36.0 °F 31.1 °F 32.0 °F 86% 30.01 in 10.0 mi WNW 5.8 mph - 0.00 in   Overcast
6:55 AM 35.1 °F 28.6 °F 30.0 °F 82% 30.04 in 10.0 mi NW 8.1 mph - 0.00 in   Mostly Cloudy
7:55 AM 36.0 °F 28.0 °F 30.9 °F 82% 30.09 in 10.0 mi NNW 11.5 mph - N/A   Overcast
8:55 AM 39.0 °F 32.8 °F 32.0 °F 76% 30.12 in 10.0 mi NNW 9.2 mph - 0.00 in   Overcast
9:55 AM 39.0 °F 30.6 °F 32.0 °F 76% 30.14 in 10.0 mi North 15.0 mph 27.6 mph N/A   Overcast
10:55 AM 42.1 °F 35.7 °F 32.0 °F 67% 30.15 in 10.0 mi North 11.5 mph 25.3 mph 0.00 in   Overcast
11:55 AM 39.9 °F 35.1 °F 32.0 °F 73% 30.15 in 10.0 mi Variable 6.9 mph - 0.00 in   Overcast
12:55 PM 42.1 °F - 32.0 °F 67% 30.15 in 10.0 mi North - - 0.00 in   Overcast
1:55 PM 48.0 °F - 24.1 °F 39% 30.12 in 10.0 mi NNW 16.1 mph 31.1 mph 0.00 in   Mostly Cloudy
2:55 PM 48.9 °F - 21.0 °F 33% 30.12 in 10.0 mi NNW 19.6 mph 33.4 mph N/A   Clear
3:55 PM 48.9 °F - 21.0 °F 33% 30.10 in 10.0 mi NNW 19.6 mph 36.8 mph N/A   Clear
4:55 PM 46.9 °F - 19.0 °F 33% 30.12 in 10.0 mi North 11.5 mph 31.1 mph N/A   Clear
5:55 PM 39.9 °F 35.1 °F 19.0 °F 43% 30.17 in 10.0 mi North 6.9 mph - N/A   Clear
6:55 PM 30.9 °F 25.2 °F 19.0 °F 61% 30.23 in 10.0 mi North 5.8 mph - N/A   Clear
7:55 PM 28.9 °F 21.1 °F 19.0 °F 67% 30.25 in 10.0 mi North 8.1 mph - N/A   Clear
8:55 PM 26.1 °F - 19.0 °F 75% 30.26 in 10.0 mi Calm Calm - N/A   Clear
9:55 PM 28.9 °F - 19.9 °F 69% 30.28 in 10.0 mi Calm Calm - N/A   Clear
10:55 PM 21.0 °F 13.4 °F 17.1 °F 85% 30.30 in 10.0 mi North 5.8 mph - N/A   Clear
11:55 PM 19.9 °F 12.1 °F 17.1 °F 89% 30.31 in 10.0 mi North 5.8 mph - N/A   Clear